Погода в Кишпеке

Россия / Кабардино-Балкарская Республика     43˚38′54″N   43˚38′12″E
темп.,
°C
ветер,
м/с
пор.,
м/с
влажн.,
%
обл.,
%
осадки,
мм/ч
давл.,
гПа
погр.,
м
16 января, сб
сб1600:00+1˚ююз1193100 0.2 101472
03:00+1˚ююз2287100 0.2 1016109
06:00ююв359199 0.0 1017160
09:00+1˚юв127876 0.0 1018129
12:00+4˚вюв235895 0.0 1017716
15:00+4˚вюв345898 0.0 10151013
18:00+3˚всв3572100 0.0 1016207
21:00+2˚в5877100 0.0 1014496
17 января, вс
вс1700:00вюв3686100 0.0 1013232
03:00−1˚всв378999 0.0 1010232
06:00вюв479299 0.1 1008402
09:00вюв369599 0.3 1006322
12:00+1˚в3593100 0.1 1004312
15:00+1˚всв4693100 0.1 1004308
18:00всв3595100 0.0 1004259
21:00всв3595100 0.1 1003242
18 января, пн
пн1800:00−1˚всв3595100 0.1 1002238
03:00−1˚ссв2295100 0.1 1003167
06:00с2495100 0.1 1006166
09:00ссз5981100 0.3 1010642
12:00+2˚ссз5761100 0.0 1012775
15:00+1˚ссз586199 0.0 1013768
18:00−1˚ссз3663100 0.0 1017549
21:00−2˚ссв1270100 0.0 1018131
19 января, вт
вт1900:00−3˚ююв127597 0.0 101995
03:00−3˚юв237798 0.0 1020120
06:00−4˚вюв227899 0.0 102199
09:00−2˚ююв467182 0.0 1021303
12:00+1˚ююв56490 0.0 1019807
15:00+2˚с11470 0.0 10181230
18:00−3˚с368692 0.0 1020210
21:00−3˚сз229286 0.1 102280
20 января, ср
ср2000:00−4˚с5791100 0.5 1024449
03:00−4˚ссв1288100 0.8 1025294
06:00−5˚всв2292100 0.3 1026221
09:00−5˚в228099 0.6 1027309
12:00−2˚вюв116373 0.0 1026696
15:00−2˚ю115668 0.1 10261018
18:00−3˚ссз006773 0.0 102921
21:00−4˚ссв227086 0.0 103053